Search for airport 
image banner adimage banner ad
image banner ad

SVJC - Paraguana / Josefa Camejo Intl

Located in Punto Fijo, Venezuela

ICAO - SVJC, IATA - LSP

Data provided by Airmate  

General information

Coordinates: N11°46'50" W70°9'6"
Elevation is 92 feet MSL.
 
Rated:
View ratings: [VIEW]


View others Airports in Falcon

Operational data

Open for public use
Current time UTC:
Current local time:
Weather
TAF: TAF SVJC 211600Z 2118/2218 09010KT 9999 SCT013 TX32/18Z TN22/11Z TEMPO 2116/2122 09015G18KT 9000 VCDZ SCT013 BKN100 FM202300 08010KT 9999 SCT013 SCT100
View NOTAMs / SUP AIP / TFR affecting this airport [VIEW]
Communications frequencies: [VIEW]

Runways:

RWY identifierQFULength (ft)Width (ft)SurfaceLDA (ft)
0985°9186148ASP
27265°9186148

Airport contact information

Address: Punto Fijo Venezuela

Satellite view of SVJC